| time (UTC) | temp F | wind direction | speed MPH | gust MPH | rain 1hr in | rain 24hr in | rain mn in | humidity % | barometer mb |
| 20260506211509 | 69 | 129 | 1.0 | 5.0 | 0.00 | 0.00 | 0.00 | 26 | 1005.3 |
| 20260506210009 | 68 | 210 | 1.0 | 7.0 | 0.00 | 0.00 | 0.00 | 27 | 1005.5 |
| 20260506204505 | 68 | 41 | 0.0 | 5.0 | 0.00 | 0.00 | 0.00 | 26 | 1005.4 |
| 20260506203002 | 67 | 31 | 2.0 | 5.0 | 0.00 | 0.00 | 0.00 | 27 | 1005.5 |
| 20260506201559 | 66 | 317 | 0.0 | 7.0 | 0.00 | 0.00 | 0.00 | 27 | 1005.8 |
| 20260506200101 | 66 | 35 | 1.0 | 6.0 | 0.00 | 0.00 | 0.00 | 27 | 1005.9 |
| 20260506194555 | 66 | 37 | 2.0 | 5.0 | 0.00 | 0.00 | 0.00 | 28 | 1006.1 |
| 20260506193056 | 64 | 217 | 0.0 | 5.0 | 0.00 | 0.00 | 0.00 | 28 | 1006.3 |
| 20260506191547 | 63 | 196 | 1.0 | 5.0 | 0.00 | 0.00 | 0.00 | 30 | 1006.5 |
| 20260506190050 | 62 | 134 | 2.0 | 7.0 | 0.00 | 0.00 | 0.00 | 30 | 1006.8 |
| 20260506184547 | 62 | 224 | 1.0 | 7.0 | 0.00 | 0.00 | 0.00 | 31 | 1006.9 |
| 20260506183044 | 62 | 186 | 1.0 | 6.0 | 0.00 | 0.00 | 0.00 | 32 | 1007.2 |
| 20260506181542 | 61 | 146 | 1.0 | 9.0 | 0.00 | 0.00 | 0.00 | 32 | 1007.3 |
| 20260506180036 | 61 | 215 | 1.0 | 7.0 | 0.00 | 0.00 | 0.00 | 32 | 1007.4 |
| 20260506174536 | 60 | 195 | 1.0 | 8.0 | 0.00 | 0.00 | 0.00 | 32 | 1007.6 |
| 20260506173028 | 58 | 275 | 0.0 | 8.0 | 0.00 | 0.00 | 0.00 | 35 | 1008.0 |
| 20260506171532 | 57 | 105 | 1.0 | 5.0 | 0.00 | 0.00 | 0.00 | 35 | 1008.3 |
| 20260506170029 | 57 | 139 | 2.0 | 6.0 | 0.00 | 0.00 | 0.00 | 36 | 1008.5 |
| 20260506164541 | 57 | 142 | 0.0 | 4.0 | 0.00 | 0.00 | 0.00 | 37 | 1008.6 |
| 20260506163019 | 56 | 193 | 1.0 | 4.0 | 0.00 | 0.00 | 0.00 | 37 | 1008.7 |
| 20260506161514 | 54 | 179 | 1.0 | 6.0 | 0.00 | 0.00 | 0.00 | 38 | 1008.9 |
| 20260506160011 | 54 | 190 | 1.0 | 6.0 | 0.00 | 0.00 | 0.00 | 39 | 1009.2 |
| 20260506154506 | 52 | 176 | 0.0 | 8.0 | 0.00 | 0.00 | 0.00 | 41 | 1009.5 |
| 20260506153003 | 51 | 207 | 1.0 | 4.0 | 0.00 | 0.00 | 0.00 | 42 | 1009.6 |
| 20260506151604 | 49 | 209 | 0.0 | 5.0 | 0.00 | 0.00 | 0.00 | 43 | 1009.8 |
| 20260506150104 | 48 | 199 | 0.0 | 3.0 | 0.00 | 0.00 | 0.00 | 43 | 1010.0 |
| 20260506144551 | 46 | 128 | 1.0 | 6.0 | 0.00 | 0.00 | 0.00 | 46 | 1010.2 |
| 20260506143047 | 44 | 202 | 0.0 | 3.0 | 0.00 | 0.00 | 0.00 | 48 | 1010.3 |
| 20260506141545 | 42 | 199 | 0.0 | 4.0 | 0.00 | 0.00 | 0.00 | 50 | 1010.3 |
| 20260506140039 | 40 | 180 | 1.0 | 3.0 | 0.00 | 0.00 | 0.00 | 52 | 1010.5 |
| 20260506134535 | 39 | 139 | 1.0 | 5.0 | 0.00 | 0.00 | 0.00 | 54 | 1010.7 |
| 20260506133038 | 37 | 169 | 0.0 | 2.0 | 0.00 | 0.00 | 0.00 | 56 | 1010.8 |
| 20260506131534 | 36 | 128 | 0.0 | 2.0 | 0.00 | 0.00 | 0.00 | 57 | 1010.9 |
| 20260506130034 | 35 | 132 | 0.0 | 2.0 | 0.00 | 0.00 | 0.00 | 58 | 1011.1 |
| 20260506124531 | 33 | 139 | 0.0 | 2.0 | 0.00 | 0.00 | 0.00 | 61 | 1011.1 |
| 20260506123029 | 32 | 125 | 0.0 | 2.0 | 0.00 | 0.00 | 0.00 | 62 | 1011.2 |
| 20260506121528 | 32 | 138 | 0.0 | 1.0 | 0.00 | 0.00 | 0.00 | 62 | 1011.4 |
| 20260506120047 | 32 | 132 | 0.0 | 1.0 | 0.00 | 0.00 | 0.00 | 62 | 1011.5 |
| 20260506114524 | 32 | 136 | 0.0 | 2.0 | 0.00 | 0.00 | 0.00 | 62 | 1011.7 |
| 20260506113022 | 32 | 133 | 0.0 | 1.0 | 0.00 | 0.00 | 0.00 | 62 | 1011.8 |
| 20260506111520 | 32 | 127 | 0.0 | 1.0 | 0.00 | 0.00 | 0.00 | 62 | 1012.1 |
| 20260506110018 | 32 | 134 | 0.0 | 1.0 | 0.00 | 0.00 | 0.00 | 62 | 1012.2 |
| 20260506104526 | 32 | 129 | 0.0 | 1.0 | 0.00 | 0.00 | 0.00 | 62 | 1012.4 |
| 20260506103033 | 32 | 141 | 0.0 | 1.0 | 0.00 | 0.00 | 0.00 | 61 | 1012.6 |
| 20260506101510 | 33 | 157 | 0.0 | 1.0 | 0.00 | 0.00 | 0.00 | 60 | 1012.7 |
| 20260506100009 | 33 | 136 | 0.0 | 2.0 | 0.00 | 0.00 | 0.00 | 60 | 1012.7 |
| 20260506094505 | 34 | 142 | 0.0 | 2.0 | 0.00 | 0.00 | 0.00 | 59 | 1013.0 |
| 20260506093002 | 34 | 174 | 0.0 | 1.0 | 0.00 | 0.00 | 0.00 | 59 | 1013.1 |
| 20260506091502 | 34 | 205 | 0.0 | 3.0 | 0.00 | 0.00 | 0.00 | 59 | 1013.4 |
| 20260506090104 | 34 | 120 | 0.0 | 3.0 | 0.00 | 0.00 | 0.00 | 59 | 1013.6 |
| 20260506084626 | 35 | 152 | 0.0 | 1.0 | 0.00 | 0.00 | 0.00 | 58 | 1013.6 |
| 20260506083054 | 35 | 134 | 0.0 | 2.0 | 0.00 | 0.00 | 0.00 | 57 | 1013.8 |
| 20260506081556 | 35 | 131 | 0.0 | 2.0 | 0.00 | 0.00 | 0.00 | 57 | 1014.0 |
| 20260506073044 | 36 | 153 | 0.0 | 4.0 | 0.00 | 0.00 | 0.00 | 55 | 1014.3 |
| 20260506071542 | 36 | 153 | 0.0 | 3.0 | 0.00 | 0.00 | 0.00 | 56 | 1014.6 |
| 20260506061530 | 38 | 135 | 0.0 | 4.0 | 0.00 | 0.00 | 0.00 | 55 | 1015.1 |
| 20260506044521 | 41 | 180 | 0.0 | 3.0 | 0.00 | 0.00 | 0.00 | 50 | 1015.8 |
| 20260506043019 | 42 | 119 | 0.0 | 2.0 | 0.00 | 0.00 | 0.00 | 49 | 1015.9 |
| 20260506041517 | 43 | 116 | 0.0 | 3.0 | 0.00 | 0.00 | 0.00 | 48 | 1016.3 |
| 20260506040017 | 44 | 42 | 0.0 | 1.0 | 0.00 | 0.00 | 0.00 | 48 | 1016.2 |
| 20260506034516 | 44 | 334 | 0.0 | 1.0 | 0.00 | 0.00 | 0.00 | 46 | 1016.2 |
| 20260506033015 | 45 | 141 | 0.0 | 1.0 | 0.00 | 0.00 | 0.00 | 45 | 1016.2 |
| 20260506031514 | 46 | 39 | 0.0 | 1.0 | 0.00 | 0.00 | 0.00 | 44 | 1016.3 |
| 20260506030015 | 47 | 37 | 0.0 | 1.0 | 0.00 | 0.00 | 0.00 | 42 | 1016.4 |
| 20260506024513 | 48 | 210 | 0.0 | 2.0 | 0.00 | 0.00 | 0.00 | 41 | 1016.4 |
| 20260506023016 | 49 | 37 | 0.0 | 1.0 | 0.00 | 0.00 | 0.00 | 39 | 1016.3 |
| 20260506021511 | 50 | 23 | 0.0 | 1.0 | 0.00 | 0.00 | 0.00 | 37 | 1016.4 |
| 20260506020010 | 51 | 23 | 0.0 | 1.0 | 0.00 | 0.00 | 0.00 | 38 | 1016.6 |
| 20260506014509 | 52 | 30 | 0.0 | 1.0 | 0.00 | 0.00 | 0.00 | 36 | 1016.6 |
| 20260506013007 | 52 | 113 | 0.0 | 3.0 | 0.00 | 0.00 | 0.00 | 36 | 1016.6 |
| 20260506011507 | 52 | 30 | 1.0 | 4.0 | 0.00 | 0.00 | 0.00 | 35 | 1016.6 |
| 20260506010010 | 53 | 36 | 1.0 | 4.0 | 0.00 | 0.00 | 0.00 | 36 | 1016.7 |
| 20260506004505 | 52 | 43 | 1.0 | 5.0 | 0.00 | 0.00 | 0.00 | 35 | 1016.9 |
| 20260506003002 | 53 | 39 | 1.0 | 5.0 | 0.00 | 0.00 | 0.00 | 34 | 1017.2 |
| 20260506001600 | 53 | 188 | 0.0 | 3.0 | 0.00 | 0.00 | 0.00 | 36 | 1017.2 |
| 20260506000100 | 53 | 317 | 1.0 | 4.0 | 0.00 | 0.00 | 0.00 | 34 | 1017.4 |
| 20260505234555 | 53 | 35 | 1.0 | 4.0 | 0.00 | 0.00 | 0.00 | 34 | 1017.7 |
| 20260505233051 | 52 | 84 | 1.0 | 3.0 | 0.00 | 0.00 | 0.00 | 34 | 1017.7 |
| 20260505231605 | 53 | 27 | 1.0 | 5.0 | 0.00 | 0.00 | 0.00 | 35 | 1017.9 |
| 20260505230048 | 53 | 92 | 1.0 | 5.0 | 0.00 | 0.00 | 0.00 | 36 | 1018.3 |
| 20260505224543 | 52 | 79 | 1.0 | 3.0 | 0.00 | 0.00 | 0.00 | 35 | 1018.5 |
| 20260505223042 | 52 | 58 | 0.0 | 6.0 | 0.00 | 0.00 | 0.00 | 37 | 1018.5 |
| 20260505221538 | 52 | 52 | 1.0 | 8.0 | 0.00 | 0.00 | 0.00 | 36 | 1018.6 |
| 20260505220036 | 52 | 325 | 2.0 | 5.0 | 0.00 | 0.00 | 0.00 | 36 | 1018.9 |
| 20260505214548 | 52 | 84 | 1.0 | 5.0 | 0.00 | 0.00 | 0.00 | 37 | 1019.0 |
| 20260505213037 | 52 | 34 | 0.0 | 4.0 | 0.00 | 0.00 | 0.00 | 37 | 1019.1 |